1511910001.22,4604,8.44,72622.8,-6.79,-17.93,-18.83,0,*60
1511910002.45,4605,8.44,72624.3,-6.81,-17.97,-18.83,0,*62
1511910003.67,4606,8.44,72622.0,-6.81,-17.93,-18.83,0,*65
1511910004.91,4607,8.5,72624.0,-6.81,-17.97,-18.73,0,*6F
1511910006.14,4608,8.44,72622.3,-6.81,-17.93,-18.73,0,*64
1511910007.37,4609,8.44,72620.8,-6.81,-17.97,-18.69,0,*6A
1511910008.6,4610,8.44,72620.0,-6.81,-17.93,-18.73,0,*6D
1511910009.83,4611,8.44,72622.5,-6.81,-17.93,-18.73,0,*6C
1511910011.06,4612,8.44,72622.3,-6.81,-17.93,-18.69,0,*64
1511910012.32,4613,8.44,72620.3,-6.79,-17.97,-18.69,0,*66
1511910013.55,4614,8.44,72620.3,-6.81,-17.93,-18.69,0,*62
1511910014.8,4615,8.44,72620.5,-6.81,-17.97,-18.59,0,*64
1511910016.03,4616,8.44,72622.8,-6.81,-17.93,-18.69,0,*60
1511910017.27,4617,8.44,72622.5,-6.81,-17.93,-18.59,0,*62
1511910018.53,4618,8.44,72620.3,-6.79,-17.97,-18.69,0,*6D
1511910019.78,4619,8.44,72620.5,-6.81,-17.93,-18.59,0,*6C
1511910021.03,4620,8.44,72622.8,-6.81,-17.97,-18.59,0,*62
1511910022.26,4621,8.44,72620.0,-6.81,-17.93,-18.69,0,*64
1511910023.51,4622,8.44,72620.0,-6.81,-17.97,-18.59,0,*60
1511910024.75,4623,8.44,72620.0,-6.81,-17.97,-18.59,0,*61
1511910026.0,4624,8.44,72620.8,-6.81,-17.97,-18.59,0,*66
1511910027.28,4625,8.44,72620.3,-6.79,-17.93,-18.55,0,*68
1511910028.54,4626,8.44,72620.8,-6.81,-17.97,-18.55,0,*68
1511910029.79,4627,8.44,72622.5,-6.81,-17.97,-18.55,0,*69
1511910031.04,4628,8.44,72620.3,-6.81,-17.93,-18.59,0,*6E
1511910032.29,4629,8.44,72622.0,-6.81,-17.97,-18.55,0,*67
1511910033.57,4630,8.44,72620.8,-6.79,-17.97,-18.55,0,*68
1511910034.83,4631,8.44,72622.3,-6.81,-17.93,-18.55,0,*6A
1511910036.08,4632,8.44,72618.8,-6.81,-17.97,-18.55,0,*6D
1511910037.31,4633,8.44,72620.8,-6.81,-18.07,-18.55,0,*6A
1511910038.53,4634,8.44,72622.3,-6.81,-18.11,-18.59,0,*66
1511910039.73,4635,8.44,72622.0,-6.81,-18.11,-18.45,0,*6A
1511910040.96,4636,8.44,72620.0,-6.81,-18.11,-18.55,0,*68
1511910042.21,4637,8.44,72620.8,-6.81,-18.01,-18.55,0,*68
1511910043.43,4638,8.44,72622.5,-6.81,-18.11,-18.59,0,*6A
1511910044.63,4639,8.44,72622.3,-6.81,-18.07,-18.41,0,*65
1511910045.86,4640,8.44,72620.0,-6.81,-18.01,-18.45,0,*69
1511910047.11,4641,8.44,72622.3,-6.81,-18.01,-18.55,0,*69
1511910048.31,4642,8.44,72622.3,-6.81,-18.07,-18.41,0,*69
1511910049.52,4643,8.44,72616.8,-6.81,-18.07,-18.49,0,*60
1511910050.72,4644,8.44,72622.3,-6.81,-18.11,-18.49,0,*60
1511910051.93,4645,8.44,72622.8,-6.81,-18.07,-18.49,0,*66
1511910053.13,4646,8.44,72618.5,-6.81,-18.11,-18.49,0,*62
1511910054.35,4647,8.44,72620.5,-6.81,-18.11,-18.55,0,*6E
1511910055.57,4648,8.44,72620.5,-6.81,-18.17,-18.59,0,*6B
1511910056.8,4649,8.44,72622.3,-6.81,-18.11,-18.55,0,*60
1511910058.02,4650,8.44,72620.3,-6.81,-18.17,-18.59,0,*62
1511910059.24,4651,8.44,72620.8,-6.81,-18.17,-18.55,0,*6F
1511910060.45,4652,8.44,72620.8,-6.81,-18.07,-18.49,0,*60
1511910061.65,4653,8.44,72620.5,-6.81,-18.11,-18.49,0,*66
1511910062.85,4654,8.44,72620.3,-6.81,-18.17,-18.45,0,*6B
1511910064.07,4655,8.44,72620.8,-6.81,-18.17,-18.59,0,*67
1511910065.3,4656,8.44,72622.0,-6.81,-18.21,-18.55,0,*6D
1511910066.5,4657,8.44,72620.8,-6.81,-18.21,-18.49,0,*61
1511910067.71,4658,8.44,72616.8,-6.81,-18.11,-18.49,0,*6D
1511910068.93,4659,8.44,72618.8,-6.81,-18.17,-18.55,0,*67
1511910070.14,4660,8.44,72622.3,-6.81,-18.25,-18.65,0,*6F
1511910071.36,4661,8.44,72620.3,-6.85,-18.35,-18.65,0,*6B
1511910072.59,4662,8.44,72620.5,-6.81,-18.21,-18.55,0,*6A
1511910073.79,4663,8.44,72616.8,-6.81,-18.17,-18.65,0,*6D
1511910075.02,4664,8.44,72618.5,-6.81,-18.25,-18.55,0,*68
1511910076.24,4665,8.44,72622.3,-6.81,-18.25,-18.55,0,*69
1511910077.5,4666,8.44,72622.3,-6.81,-18.31,-18.55,0,*6F
1511910078.73,4667,8.44,72622.0,-6.81,-18.31,-18.65,0,*6D
1511910079.96,4668,8.44,72616.3,-6.85,-18.31,-18.65,0,*66
1511910081.19,4669,8.44,72618.8,-6.81,-18.25,-18.55,0,*65
1511910082.45,4670,8.44,72618.3,-6.81,-18.31,-18.55,0,*68
1511910083.68,4671,8.44,72620.5,-6.81,-18.31,-18.45,0,*68
1511910084.93,4672,8.44,72616.8,-6.85,-18.31,-18.59,0,*62
1511910086.18,4673,8.44,72620.5,-6.81,-18.31,-18.59,0,*67
1511910087.42,4674,8.44,72618.8,-6.85,-18.31,-18.59,0,*64
1511910088.68,4675,8.44,72622.3,-6.81,-18.31,-18.55,0,*6D
1511910089.91,4676,8.44,72616.5,-6.81,-18.25,-18.55,0,*6B
1511910091.13,4677,8.44,72620.0,-6.85,-18.35,-18.65,0,*6C
1511910092.37,4678,8.44,72622.3,-6.85,-18.31,-18.65,0,*67
1511910093.61,4679,8.44,72620.3,-6.85,-18.31,-18.59,0,*69
1511910094.84,4680,8.44,72616.3,-6.85,-18.31,-18.65,0,*60
1511910096.06,4681,8.44,72618.5,-6.81,-18.25,-18.59,0,*6F
1511910097.29,4682,8.44,72618.5,-6.85,-18.31,-18.65,0,*62
1511910098.54,4683,8.44,72620.3,-6.85,-18.31,-18.59,0,*6C
1511910099.79,4684,8.44,72618.3,-6.85,-18.35,-18.59,0,*6F
1511910101.03,4685,8.44,72618.5,-6.85,-18.31,-18.59,0,*6A
1511910102.24,4686,8.44,72620.5,-6.81,-18.17,-18.45,0,*64
1511910103.48,4687,8.44,72616.3,-6.85,-18.35,-18.59,0,*6C
1511910104.71,4688,8.44,72620.3,-6.85,-18.35,-18.65,0,*6C
1511910105.96,4689,8.44,72620.0,-6.85,-18.31,-18.59,0,*66
1511910107.21,4690,8.44,72622.0,-6.81,-18.31,-18.59,0,*6A
1511910108.45,4691,8.44,72618.8,-6.85,-18.35,-18.59,0,*6B
1511910109.65,4692,8.44,72622.5,-6.85,-18.21,-18.65,0,*62
1511910110.88,4693,8.44,72616.0,-6.85,-18.31,-18.65,0,*62
1511910112.12,4694,8.44,72616.5,-6.85,-18.31,-18.65,0,*65
1511910113.34,4695,8.44,72620.8,-6.81,-18.25,-18.55,0,*66
1511910114.57,4696,8.44,72620.0,-6.85,-18.31,-18.65,0,*67
1511910115.8,4697,8.44,72616.5,-6.87,-18.21,-18.65,0,*65
1511910117.02,4698,8.44,72622.3,-6.85,-18.21,-18.59,0,*67
1511910118.24,4699,8.44,72622.3,-6.81,-18.11,-18.55,0,*6D
1511910119.48,4700,8.44,72616.5,-6.85,-18.31,-18.65,0,*69
1511910120.68,4701,8.44,72620.0,-6.85,-18.21,-18.65,0,*69
1511910121.88,4702,8.44,72618.5,-6.85,-18.21,-18.65,0,*6A
1511910123.08,4703,8.44,72624.0,-6.85,-18.21,-18.65,0,*6B
1511910124.28,4704,8.44,72622.3,-6.85,-18.21,-18.65,0,*6C
1511910125.51,4705,8.44,72618.8,-6.85,-18.31,-18.65,0,*6C
1511910126.73,4706,8.44,72622.0,-6.85,-18.17,-18.59,0,*64
1511910127.93,4707,8.44,72624.5,-6.85,-18.21,-18.65,0,*6F
1511910129.15,4708,8.44,72622.5,-6.85,-18.21,-18.59,0,*6F
1511910130.37,4709,8.44,72622.0,-6.85,-18.21,-18.59,0,*6E
1511910131.58,4710,8.44,72622.8,-6.85,-18.21,-18.59,0,*66
1511910132.83,4711,8.44,72624.0,-6.87,-18.17,-18.59,0,*60
1511910134.05,4712,8.44,72620.3,-6.85,-18.07,-18.59,0,*60
1511910135.25,4713,8.44,72620.3,-6.85,-18.07,-18.49,0,*60
1511910136.45,4714,8.44,72622.3,-6.85,-18.07,-18.49,0,*67
1511910137.68,4715,8.44,72624.0,-6.87,-18.07,-18.65,0,*6A
1511910138.93,4716,8.44,72616.8,-6.87,-18.17,-18.59,0,*67
1511910140.16,4717,8.44,72622.8,-6.87,-18.07,-18.49,0,*66
1511910141.42,4718,8.44,72618.8,-6.87,-18.01,-18.49,0,*6F
1511910142.65,4719,8.44,72616.0,-6.87,-18.07,-18.49,0,*68
1511910143.91,4720,8.44,72620.3,-6.87,-18.01,-18.49,0,*64
1511910145.16,4721,8.44,72620.3,-6.87,-18.01,-18.45,0,*69
1511910146.42,4722,8.44,72618.0,-6.87,-18.01,-18.45,0,*6A
1511910147.67,4723,8.44,72618.8,-6.87,-18.01,-18.49,0,*67
1511910148.93,4724,8.44,72622.3,-6.87,-17.93,-18.45,0,*68
1511910150.2,4725,8.44,72620.0,-6.87,-18.01,-18.59,0,*60
1511910151.46,4726,8.44,72620.0,-6.87,-18.01,-18.49,0,*62
1511910152.69,4727,8.44,72618.0,-6.87,-17.87,-18.45,0,*6E
1511910153.95,4728,8.44,72616.8,-6.87,-17.93,-18.45,0,*64
1511910155.2,4729,8.44,72622.3,-6.87,-17.93,-18.45,0,*65
1511910156.46,4730,8.44,72622.3,-6.87,-17.93,-18.49,0,*61
1511910157.69,4731,8.44,72616.0,-6.87,-17.87,-18.49,0,*65
1511910158.95,4732,8.44,72620.3,-6.87,-17.87,-18.35,0,*6D
1511910160.21,4733,8.44,72620.3,-6.87,-17.87,-18.35,0,*6C
1511910161.46,4734,8.44,72622.0,-6.87,-17.87,-18.35,0,*6B
1511910162.72,4735,8.44,72616.3,-6.87,-17.79,-18.45,0,*6C
1511910163.97,4736,8.44,72622.0,-6.85,-17.79,-18.35,0,*6A
1511910165.22,4737,8.44,72622.0,-6.87,-17.79,-18.45,0,*6E
1511910166.5,4738,8.44,72620.0,-6.87,-17.79,-18.35,0,*66
1511910167.78,4739,8.44,72618.8,-6.87,-17.79,-18.35,0,*67
1511910169.03,4740,8.44,72618.8,-6.87,-17.79,-18.45,0,*6E
1511910170.28,4741,8.44,72618.5,-6.87,-17.73,-18.35,0,*62
1511910171.54,4742,8.44,72620.0,-6.87,-17.73,-18.31,0,*65
1511910172.77,4743,8.44,72622.3,-6.87,-17.73,-18.21,0,*65
1511910174.03,4744,8.44,72622.3,-6.87,-17.73,-18.31,0,*63
1511910175.29,4745,8.44,72616.3,-6.87,-17.69,-18.31,0,*69
1511910176.52,4746,8.44,72620.0,-6.87,-17.69,-18.21,0,*6B
1511910177.8,4747,8.44,72620.0,-6.87,-17.59,-18.31,0,*68
1511910179.06,4748,8.44,72616.0,-6.87,-17.59,-18.21,0,*66
1511910180.31,4749,8.44,72616.0,-6.87,-17.59,-18.21,0,*67
1511910181.6,4750,8.44,72618.8,-6.87,-17.55,-18.31,0,*62
1511910182.86,4751,8.44,72618.8,-6.87,-17.45,-18.21,0,*63
1511910184.11,4752,8.44,72622.3,-6.87,-17.55,-18.21,0,*61
1511910185.37,4753,8.44,72618.0,-6.87,-17.45,-18.21,0,*61
1511910186.63,4754,8.44,72620.8,-6.87,-17.45,-18.21,0,*66
1511910187.89,4755,8.44,72618.5,-6.87,-17.45,-18.21,0,*67
1511910189.15,4756,8.44,72620.5,-6.87,-17.41,-18.07,0,*64
1511910190.41,4757,8.44,72618.5,-6.87,-17.25,-18.07,0,*67
1511910191.64,4758,8.44,72618.5,-6.87,-17.31,-18.17,0,*6C
1511910192.88,4759,8.44,72618.3,-6.91,-17.35,-18.11,0,*68
1511910194.11,4760,8.44,72618.0,-6.91,-17.31,-18.11,0,*66
1511910195.34,4761,8.44,72618.5,-6.85,-17.17,-18.17,0,*60
1511910196.6,4762,8.44,72616.0,-6.91,-17.21,-18.11,0,*65
1511910197.86,4763,8.44,72616.3,-6.87,-17.17,-18.07,0,*61
1511910199.1,4764,8.44,72620.3,-6.85,-17.17,-18.07,0,*64
1511910200.38,4765,8.44,72620.3,-6.87,-17.03,-18.01,0,*64
1511910201.66,4766,8.44,72616.0,-6.87,-17.03,-18.01,0,*67
1511910202.93,4767,8.44,72620.0,-6.91,-17.07,-18.07,0,*63
1511910204.21,4768,8.44,72620.0,-6.91,-17.07,-17.97,0,*6A
1511910205.47,4769,8.44,72622.0,-6.87,-16.97,-18.01,0,*64
1511910206.72,4770,8.44,72620.3,-6.87,-16.93,-18.01,0,*68
1511910207.98,4771,8.44,72616.5,-6.87,-16.89,-18.01,0,*62
1511910209.23,4772,8.44,72616.5,-6.91,-16.89,-17.93,0,*62
1511910210.49,4773,8.44,72618.0,-6.87,-16.83,-17.93,0,*6E
1511910211.74,4774,8.44,72618.0,-6.87,-16.75,-17.93,0,*60
1511910212.98,4775,8.44,72622.3,-6.91,-16.79,-17.83,0,*6B
1511910214.24,4776,8.44,72618.0,-6.87,-16.75,-17.79,0,*66
1511910215.49,4777,8.44,72616.5,-6.91,-16.79,-17.93,0,*68
1511910216.78,4778,8.44,72618.3,-6.87,-16.69,-17.79,0,*65
1511910218.06,4779,8.44,72620.0,-6.91,-16.69,-17.79,0,*63
1511910219.34,4780,8.44,72616.8,-6.87,-16.65,-17.79,0,*6E
1511910220.6,4781,8.44,72618.3,-6.87,-16.51,-17.83,0,*6D
1511910221.86,4782,8.44,72620.0,-6.87,-16.51,-17.69,0,*6A
1511910223.07,4783,8.44,72618.5,-6.85,-16.55,-17.69,0,*6D
1511910224.32,4784,8.44,72618.0,-6.91,-16.45,-17.63,0,*64
1511910225.58,4785,8.44,72618.3,-6.91,-16.45,-17.63,0,*65
1511910226.84,4786,8.44,72616.5,-6.91,-16.41,-17.63,0,*62
1511910228.12,4787,8.44,72616.3,-6.87,-16.27,-17.59,0,*6D
1511910229.4,4788,8.44,72618.5,-6.91,-16.31,-17.63,0,*6B
1511910230.66,4789,8.44,72616.8,-6.91,-16.27,-17.49,0,*65
1511910231.94,4790,8.44,72618.5,-6.91,-16.13,-17.59,0,*6B
1511910233.23,4791,8.44,72616.3,-6.87,-16.09,-17.55,0,*6A
1511910234.49,4792,8.44,72622.5,-6.91,-16.13,-17.49,0,*68
1511910235.75,4793,8.44,72618.3,-6.91,-16.13,-17.49,0,*69
1511910237.0,4794,8.44,72616.0,-6.91,-16.03,-17.45,0,*63
1511910238.26,4795,8.44,72618.8,-6.91,-15.99,-17.45,0,*62
1511910239.48,4796,8.44,72618.3,-6.87,-15.95,-17.31,0,*69
1511910240.75,4797,8.44,72618.0,-6.91,-15.89,-17.35,0,*66
1511910242.01,4798,8.44,72616.8,-6.91,-15.85,-17.35,0,*65
1511910243.27,4799,8.44,72622.8,-6.91,-15.85,-17.35,0,*64
1511910244.56,4800,8.44,72618.0,-6.91,-15.81,-17.45,0,*68
1511910245.82,4801,8.44,72616.0,-6.91,-15.81,-17.35,0,*6E
1511910247.08,4802,8.44,72618.8,-6.87,-15.53,-17.11,0,*63
1511910248.35,4803,8.44,72620.8,-6.91,-15.57,-17.17,0,*67
1511910249.61,4804,8.44,72614.8,-6.87,-15.63,-17.11,0,*66
1511910250.87,4805,8.44,72618.8,-6.91,-15.53,-17.17,0,*65
1511910252.13,4806,8.44,72616.8,-6.91,-15.53,-17.07,0,*67
1511910253.42,4807,8.44,72620.5,-6.91,-15.43,-17.07,0,*67
1511910254.7,4808,8.44,72618.8,-6.87,-15.35,-17.17,0,*6F
1511910255.96,4809,8.44,72616.0,-6.87,-15.25,-17.03,0,*6A
1511910257.22,4810,8.44,72616.8,-6.91,-15.29,-17.03,0,*69
1511910258.45,4811,8.44,72618.8,-6.91,-15.25,-16.93,0,*6C
1511910259.7,4812,8.44,72618.5,-6.87,-15.21,-16.89,0,*67
1511910260.95,4813,8.44,72616.3,-6.87,-15.21,-16.83,0,*6C
1511910262.18,4814,8.44,72618.3,-6.91,-15.11,-16.79,0,*6A
1511910263.4,4815,8.44,72618.0,-6.91,-15.11,-16.79,0,*6B
1511910264.63,4816,8.44,72618.8,-6.91,-15.11,-16.79,0,*68
1511910265.89,4817,8.44,72618.8,-6.91,-15.01,-16.75,0,*64
1511910267.16,4818,8.44,72616.8,-6.91,-14.97,-16.69,0,*68
1511910268.42,4819,8.44,72618.8,-6.91,-14.93,-16.75,0,*60
1511910269.7,4820,8.44,72618.3,-6.91,-14.93,-16.69,0,*67
1511910270.95,4821,8.44,72618.5,-6.87,-14.89,-16.65,0,*66
1511910272.22,4822,8.44,72618.5,-6.91,-14.83,-16.59,0,*67
1511910273.48,4823,8.44,72612.3,-6.91,-14.83,-16.55,0,*6A
1511910274.73,4824,8.44,72614.3,-6.87,-14.75,-16.45,0,*62
1511910275.98,4825,8.44,72618.5,-6.87,-14.75,-16.41,0,*67
1511910277.23,4826,8.44,72614.3,-6.87,-14.75,-16.37,0,*65
1511910278.49,4827,8.44,72618.5,-6.87,-14.65,-16.27,0,*64
1511910279.74,4828,8.44,72618.3,-6.91,-14.65,-16.31,0,*6B
1511910280.99,4829,8.44,72616.8,-6.87,-14.61,-16.23,0,*6A
1511910282.28,4830,8.44,72614.3,-6.91,-14.55,-16.27,0,*66
1511910283.56,4831,8.44,72612.0,-6.91,-14.51,-16.27,0,*63
1511910284.85,4832,8.44,72618.0,-6.91,-14.43,-16.17,0,*60
1511910286.14,4833,8.44,72614.3,-6.91,-14.43,-16.17,0,*61
1511910287.4,4834,8.44,72618.5,-6.87,-14.37,-16.13,0,*66
1511910288.63,4835,8.44,72616.5,-6.87,-14.33,-15.99,0,*62
1511910289.87,4836,8.44,72618.5,-6.87,-14.33,-15.95,0,*6D
1511910291.1,4837,8.44,72618.3,-6.87,-14.33,-15.95,0,*6C
1511910292.33,4838,8.44,72618.3,-6.91,-14.29,-15.99,0,*63
1511910293.6,4839,8.44,72616.3,-6.87,-14.23,-15.85,0,*62
1511910294.87,4840,8.44,72616.5,-6.87,-14.19,-15.81,0,*61
1511910296.1,4841,8.44,72616.5,-6.87,-14.19,-15.67,0,*68
1511910297.37,4842,8.44,72618.0,-6.91,-14.23,-15.81,0,*6D
1511910298.61,4843,8.44,72616.0,-6.87,-14.11,-15.63,0,*66
1511910299.84,4844,8.44,72616.0,-6.87,-14.11,-15.63,0,*61
1511910301.08,4845,8.44,72614.5,-6.87,-14.11,-15.63,0,*60
1511910302.35,4846,8.44,72618.3,-6.87,-14.05,-15.53,0,*65
1511910303.62,4847,8.44,72616.3,-6.91,-13.97,-15.53,0,*6F
1511910304.88,4848,8.44,72618.5,-6.87,-13.93,-15.39,0,*6F
1511910306.14,4849,8.44,72614.5,-6.87,-13.93,-15.39,0,*6E
1511910307.4,4850,8.44,72616.3,-6.87,-13.93,-15.39,0,*66
1511910308.68,4851,8.44,72616.0,-6.91,-13.97,-15.29,0,*65
1511910309.95,4852,8.44,72614.8,-6.91,-13.97,-15.29,0,*66
1511910311.23,4853,8.44,72618.5,-6.87,-13.79,-15.21,0,*68
1511910312.49,4854,8.44,72618.0,-6.87,-13.87,-15.11,0,*6D
1511910313.77,4855,8.44,72616.8,-6.87,-13.87,-15.21,0,*6F
1511910315.03,4856,8.44,72612.8,-6.87,-13.79,-15.07,0,*69
1511910316.29,4857,8.44,72616.0,-6.87,-13.73,-14.97,0,*6A
1511910317.57,4858,8.44,72616.3,-6.87,-13.79,-14.93,0,*6B
1511910318.83,4859,8.44,72618.0,-6.87,-13.73,-14.93,0,*60
1511910320.08,4860,8.44,72612.5,-6.87,-13.65,-14.79,0,*69
1511910321.34,4861,8.44,72612.3,-6.87,-13.65,-14.75,0,*64
1511910322.6,4862,8.44,72614.5,-6.87,-13.65,-14.79,0,*6B
1511910323.88,4863,8.44,72616.8,-6.87,-13.61,-14.75,0,*62
1511910325.13,4864,8.44,72616.0,-6.87,-13.61,-14.61,0,*60
1511910326.42,4865,8.44,72618.3,-6.87,-13.61,-14.51,0,*62
1511910327.71,4866,8.44,72616.0,-6.87,-13.61,-14.47,0,*66
1511910328.99,4867,8.44,72618.5,-6.87,-13.61,-14.51,0,*60
1511910330.26,4868,8.44,72616.0,-6.87,-13.51,-14.47,0,*6B
1511910331.49,4869,8.44,72616.5,-6.87,-13.51,-14.37,0,*6D
1511910332.73,4870,8.44,72618.8,-6.87,-13.51,-14.37,0,*65
1511910333.97,4871,8.44,72616.8,-6.87,-13.51,-14.33,0,*60
1511910335.18,4872,8.44,72614.5,-6.85,-13.51,-14.33,0,*61
1511910336.41,4873,8.44,72614.8,-6.87,-13.47,-14.23,0,*64
1511910337.63,4874,8.44,72614.8,-6.87,-13.47,-14.11,0,*62
1511910338.86,4875,8.44,72614.5,-6.85,-13.37,-14.19,0,*6E
1511910340.08,4876,8.44,72612.3,-6.85,-13.47,-14.05,0,*67
1511910341.33,4877,8.44,72614.3,-6.85,-13.37,-14.05,0,*61
1511910342.55,4878,8.44,72616.5,-6.85,-13.37,-14.11,0,*6B
1511910343.78,4879,8.44,72616.5,-6.85,-13.47,-14.05,0,*68
1511910345.03,4880,8.44,72614.0,-6.85,-13.37,-13.87,0,*64
1511910346.28,4881,8.44,72616.3,-6.85,-13.37,-13.87,0,*65
1511910347.49,4882,8.44,72616.0,-6.85,-13.47,-13.87,0,*61
1511910348.74,4883,8.44,72614.8,-6.85,-13.33,-13.79,0,*62
1511910349.98,4884,8.44,72614.5,-6.85,-13.37,-13.79,0,*61
1511910351.21,4885,8.44,72612.0,-6.85,-13.37,-13.73,0,*6A
1511910352.4,4886,8.44,72614.3,-6.85,-13.47,-13.73,0,*6E
1511910353.63,4887,8.44,72614.3,-6.85,-13.37,-13.65,0,*6F
1511910354.85,4888,8.44,72616.8,-6.85,-13.47,-13.61,0,*63
1511910356.1,4889,8.44,72618.3,-6.85,-13.33,-13.61,0,*61
1511910357.33,4890,8.44,72616.0,-6.85,-13.23,-13.61,0,*68
1511910358.54,4891,8.44,72616.3,-6.81,-13.19,-13.55,0,*63
1511910359.79,4892,8.44,72616.0,-6.85,-13.33,-13.61,0,*6B
1511910360.99,4893,8.44,72612.8,-6.85,-13.19,-13.47,0,*66
1511910362.21,4894,8.44,72616.3,-6.85,-13.33,-13.51,0,*6E
1511910363.41,4895,8.44,72614.3,-6.85,-13.19,-13.43,0,*64
1511910364.61,4896,8.44,72616.5,-6.85,-13.23,-13.47,0,*6A
1511910365.83,4897,8.44,72618.0,-6.85,-13.33,-13.47,0,*6A
1511910367.03,4898,8.44,72616.0,-6.85,-13.23,-13.47,0,*64
1511910368.25,4899,8.44,72618.0,-6.85,-13.33,-13.51,0,*63
1511910369.48,4900,8.44,72614.5,-6.81,-13.19,-13.33,0,*6A
1511910370.74,4901,8.44,72618.5,-6.81,-13.29,-13.29,0,*63
1511910371.99,4902,8.44,72618.0,-6.85,-13.33,-13.37,0,*60
1511910373.24,4903,8.44,72618.8,-6.85,-13.33,-13.37,0,*61
1511910374.49,4904,8.44,72618.5,-6.85,-13.37,-13.33,0,*66
1511910375.74,4905,8.44,72618.3,-6.81,-13.29,-13.33,0,*6C
1511910377.0,4906,8.44,72614.8,-6.85,-13.33,-13.33,0,*60
1511910378.25,4907,8.44,72618.8,-6.81,-13.33,-13.29,0,*6E
1511910379.5,4908,8.44,72616.5,-6.85,-13.33,-13.33,0,*6E
1511910380.75,4909,8.44,72616.0,-6.85,-13.37,-13.33,0,*6B
1511910381.99,4910,8.44,72616.8,-6.85,-13.29,-13.19,0,*64
1511910383.2,4911,8.44,72616.0,-6.81,-13.19,-13.19,0,*62
1511910384.43,4912,8.44,72616.3,-6.85,-13.33,-13.23,0,*64
1511910385.66,4913,8.44,72616.5,-6.85,-13.33,-13.19,0,*6C
1511910386.89,4914,8.44,72616.3,-6.81,-13.29,-13.07,0,*6B
1511910388.09,4915,8.44,72614.3,-6.81,-13.19,-13.07,0,*69
1511910389.33,4916,8.44,72614.5,-6.81,-13.29,-13.19,0,*66
1511910390.56,4917,8.44,72618.5,-6.81,-13.29,-13.15,0,*6B
1511910391.76,4918,8.44,72612.3,-6.81,-13.15,-13.11,0,*6F
1511910392.98,4919,8.44,72616.8,-6.81,-13.29,-13.07,0,*66
1511910394.21,4920,8.44,72616.0,-6.81,-13.29,-13.07,0,*6C
1511910395.44,4921,8.44,72616.3,-6.81,-13.29,-13.15,0,*6E
1511910396.67,4922,8.44,72616.5,-6.81,-13.29,-13.15,0,*6D
1511910397.9,4923,8.44,72616.5,-6.85,-13.33,-13.19,0,*6F
1511910399.13,4924,8.44,72616.3,-6.81,-13.29,-13.15,0,*6B
1511910400.35,4925,8.44,72614.0,-6.81,-13.29,-13.07,0,*69
1511910401.58,4926,8.44,72616.0,-6.81,-13.29,-13.07,0,*6A
1511910402.79,4927,8.44,72620.3,-6.81,-13.19,-13.07,0,*68
1511910403.99,4928,8.44,72618.3,-6.81,-13.23,-13.11,0,*69
1511910405.24,4929,8.44,72614.0,-6.81,-13.29,-13.01,0,*63
1511910406.49,4930,8.44,72614.5,-6.81,-13.29,-13.01,0,*6B
1511910407.72,4931,8.44,72616.5,-6.81,-13.29,-13.07,0,*6C
1511910408.93,4932,8.44,72616.8,-6.81,-13.19,-13.07,0,*6C
1511910410.16,4933,8.44,72618.3,-6.81,-13.19,-13.01,0,*6B
1511910411.38,4934,8.44,72612.8,-6.81,-13.19,-13.01,0,*6C
1511910412.61,4935,8.44,72616.0,-6.81,-13.19,-13.01,0,*6D
1511910413.82,4936,8.44,72618.8,-6.81,-13.11,-12.97,0,*68
1511910415.05,4937,8.44,72618.3,-6.81,-13.19,-13.01,0,*6F
1511910416.25,4938,8.44,72616.0,-6.81,-13.19,-12.97,0,*6E
1511910417.46,4939,8.44,72616.0,-6.81,-13.15,-12.97,0,*63
1511910418.68,4940,8.44,72612.5,-6.81,-13.15,-13.01,0,*63
1511910419.93,4941,8.44,72618.0,-6.81,-13.29,-13.01,0,*6D
1511910421.18,4942,8.44,72614.5,-6.81,-13.29,-13.01,0,*6E
1511910422.41,4943,8.44,72616.8,-6.81,-13.11,-12.83,0,*6F
1511910423.61,4944,8.44,72614.0,-6.81,-13.11,-12.93,0,*69
1511910424.85,4945,8.44,72618.0,-6.81,-13.01,-12.93,0,*69
1511910426.05,4946,8.44,72618.5,-6.81,-13.11,-12.93,0,*6B
1511910427.31,4947,8.44,72616.0,-6.81,-13.01,-12.83,0,*6A
1511910428.54,4948,8.44,72616.3,-6.81,-13.11,-12.83,0,*64
1511910429.77,4949,8.44,72616.3,-6.81,-13.01,-12.93,0,*65
1511910430.98,4950,8.44,72618.0,-6.81,-13.07,-12.89,0,*60
1511910432.23,4951,8.44,72616.0,-6.81,-13.01,-12.83,0,*6D
1511910433.49,4952,8.44,72618.3,-6.81,-13.01,-12.83,0,*6E
1511910434.72,4953,8.44,72614.0,-6.81,-12.97,-12.79,0,*64
1511910435.98,4954,8.44,72616.3,-6.81,-13.01,-12.79,0,*6D
1511910437.21,4955,8.44,72618.3,-6.81,-12.97,-12.83,0,*67
1511910438.47,4956,8.44,72616.0,-6.79,-12.97,-12.83,0,*63
1511910439.73,4957,8.44,72618.8,-6.79,-12.97,-12.83,0,*62
1511910440.96,4958,8.44,72618.0,-6.81,-12.93,-12.83,0,*6E
1511910442.19,4959,8.44,72616.5,-6.81,-12.93,-12.83,0,*6F
1511910443.45,4960,8.44,72616.0,-6.79,-12.93,-12.79,0,*67
1511910444.69,4961,8.44,72618.0,-6.81,-12.93,-12.79,0,*61
1511910445.92,4962,8.44,72618.0,-6.81,-12.93,-12.79,0,*62
1511910447.16,4963,8.44,72616.8,-6.81,-12.93,-12.71,0,*6B
1511910448.42,4964,8.44,72618.8,-6.81,-12.83,-12.79,0,*65
1511910449.67,4965,8.44,72616.5,-6.81,-12.83,-12.83,0,*61
1511910450.9,4966,8.44,72618.3,-6.81,-12.93,-12.71,0,*6E
1511910452.18,4967,8.44,72612.8,-6.79,-12.83,-12.79,0,*61
1511910453.44,4968,8.44,72618.0,-6.81,-12.83,-12.71,0,*61
1511910454.72,4969,8.44,72618.0,-6.79,-12.83,-12.79,0,*6F
1511910456.01,4970,8.44,72620.0,-6.79,-12.79,-12.71,0,*6A
1511910457.27,4971,8.44,72616.0,-6.81,-12.79,-12.71,0,*6C
1511910458.53,4972,8.44,72614.3,-6.81,-12.79,-12.71,0,*6F
1511910459.79,4973,8.44,72612.3,-6.81,-12.79,-12.79,0,*66
1511910461.05,4974,8.44,72616.5,-6.81,-12.79,-12.71,0,*69
1511910462.3,4975,8.44,72616.0,-6.81,-12.71,-12.65,0,*65
1511910463.58,4976,8.44,72618.5,-6.79,-12.71,-12.65,0,*61
1511910464.86,4977,8.44,72618.5,-6.79,-12.71,-12.65,0,*60
1511910466.11,4978,8.44,72618.5,-6.81,-12.71,-12.57,0,*69
1511910467.37,4979,8.44,72616.3,-6.81,-12.65,-12.71,0,*69
1511910468.62,4980,8.44,72618.0,-6.81,-12.65,-12.65,0,*6A
1511910469.88,4981,8.44,72614.5,-6.81,-12.57,-12.57,0,*6B
1511910471.16,4982,8.44,72616.3,-6.79,-12.71,-12.57,0,*6B
1511910472.41,4983,8.44,72618.5,-6.81,-12.65,-12.65,0,*69
1511910473.66,4984,8.44,72616.3,-6.81,-12.65,-12.65,0,*6E
1511910474.93,4985,8.44,72616.8,-6.79,-12.65,-12.65,0,*68
1511910476.22,4986,8.44,72618.8,-6.79,-12.53,-12.57,0,*6F
1511910477.48,4987,8.44,72616.8,-6.81,-12.53,-12.57,0,*69
1511910478.75,4988,8.44,72616.8,-6.79,-12.57,-12.65,0,*64
1511910480.03,4989,8.44,72614.5,-6.79,-12.57,-12.65,0,*65
1511910481.31,4990,8.44,72616.0,-6.79,-12.57,-12.57,0,*6C
1511910482.59,4991,8.44,72614.5,-6.79,-12.57,-12.65,0,*6C
1511910483.86,4992,8.44,72616.0,-6.79,-12.57,-12.65,0,*6F
1511910485.15,4993,8.44,72618.0,-6.79,-12.53,-12.57,0,*6B
1511910486.43,4994,8.44,72616.8,-6.79,-12.53,-12.65,0,*6D
1511910487.68,4995,8.44,72616.0,-6.81,-12.53,-12.57,0,*6A
1511910488.97,4996,8.44,72616.8,-6.79,-12.53,-12.57,0,*6E
1511910490.25,4997,8.44,72618.5,-6.79,-12.53,-12.57,0,*6F
1511910491.51,4998,8.44,72616.5,-6.81,-12.53,-12.65,0,*66
1511910492.79,4999,8.44,72618.8,-6.79,-12.53,-12.65,0,*60
1511910494.04,5000,8.44,72618.0,-6.81,-12.53,-12.57,0,*6E
1511910495.3,5001,8.44,72614.5,-6.79,-12.43,-12.57,0,*69
1511910496.55,5002,8.44,72616.0,-6.79,-12.43,-12.57,0,*6A
1511910497.77,5003,8.44,72616.3,-6.81,-12.43,-12.57,0,*6C
1511910499.03,5004,8.44,72614.3,-6.79,-12.43,-12.57,0,*6C
1511910500.28,5005,8.44,72616.0,-6.79,-12.43,-12.57,0,*6D
1511910501.51,5006,8.44,72616.8,-6.81,-12.39,-12.57,0,*64
1511910502.73,5007,8.44,72612.3,-6.81,-12.43,-12.57,0,*68
1511910503.99,5008,8.44,72616.3,-6.79,-12.43,-12.57,0,*60
1511910505.24,5009,8.44,72618.3,-6.79,-12.43,-12.53,0,*65
1511910506.5,5010,8.44,72618.0,-6.79,-12.39,-12.53,0,*60
1511910507.73,5011,8.44,72618.5,-6.79,-12.39,-12.43,0,*60
1511910508.99,5012,8.44,72616.8,-6.79,-12.39,-12.53,0,*62
1511910510.24,5013,8.44,72616.3,-6.79,-12.39,-12.53,0,*63
1511910511.47,5014,8.44,72614.5,-6.79,-12.39,-12.43,0,*65
1511910512.71,5015,8.44,72616.0,-6.79,-12.29,-12.43,0,*65
1511910513.94,5016,8.44,72618.0,-6.79,-12.29,-12.43,0,*66
1511910515.21,5017,8.44,72616.8,-6.79,-12.29,-12.53,0,*66